Weather History for Anchorage, AK

Change the Weather History Date:

Thursday, November 14, 2013

  Actual Average Record
Temperature  
Mean Temperature 27 °F 22 °F  
Max Temperature 34 °F 28 °F 47 °F (1916)
Min Temperature 19 °F 16 °F -14 °F (1918)
Degree Days  
Heating Degree Days 38    
Month to date heating degree days 491  
Since 1 July heating degree days 2014  
Cooling Degree Days 0    
Month to date cooling degree days 0  
Year to date cooling degree days 21  
Moisture  
Dew Point 28 °F    
Average Humidity 91    
Maximum Humidity 100    
Minimum Humidity 81    
Precipitation  
Precipitation T in 0.04 in 0.37 in (1965)
Month to date precipitation 1.50 0.55  
Year to date precipitation 23.93 14.86  
Snow  
Snow 0.00 in 0.40 in 3.10 in (1994)
Month to date snowfall 7.5 5.2  
Since 1 July snowfall 7.5 13.5  
Since 1 September snowfall 7.5 13.5  
Snow Depth 6.00 in    
Sea Level Pressure  
Sea Level Pressure 29.95 in    
Wind  
Wind Speed 3 mph (NNE)    
Max Wind Speed 9 mph    
Max Gust Speed -    
Visibility 4 miles    
Events Fog , Rain    
T = Trace of Precipitation, MM = Missing Value Source: NWS Daily Summary

Daily Weather History Graph

Daily Weather History Graph

Search for Another Location

Airport:

Trip Planner

Search our weather history database for the weather conditions in past years. The results will help you decide how hot, cold, wet, or windy it might be!

Date:

Astronomy

Nov. 14, 2013 Rise Set
Actual Time 9:04 AM AKST 4:24 PM AKST
Civil Twilight 8:12 AM AKST 5:15 PM AKST
Nautical Twilight 7:18 AM AKST 6:09 PM AKST
Astronomical Twilight 6:28 AM AKST 7:00 PM AKST
Moon 3:30 PM AKST (11/14) 5:24 AM AKST (11/14)
Length of Visible Light 9h 02m
Length of Day
7h 19m
Waxing Gibbous, 92% of the Moon is Illuminated
Nov 14
Waxing Gibbous
Nov 17
Full
Nov 25
Last Quarter
Dec 2
New
Dec 9
First Quarter

Hourly Weather History & Observations

Time (AKST) Temp. Windchill Dew Point Humidity Pressure Visibility Wind Dir Wind Speed Gust Speed Precip Events Conditions
12:53 AM 27.0 °F - 21.9 °F 81% 30.11 in 10.0 mi Calm Calm - N/A   Mostly Cloudy
1:32 AM 26.6 °F 21.2 °F 24.8 °F 93% 30.09 in 3.0 mi WNW 4.6 mph - 0.00 in Rain Light Freezing Rain
1:46 AM 26.6 °F - 24.8 °F 93% 30.08 in 2.5 mi Calm Calm - 0.00 in Rain Light Freezing Rain
1:53 AM 26.1 °F - 25.0 °F 96% 30.08 in 2.5 mi Calm Calm - 0.00 in Rain Light Freezing Rain
2:53 AM 28.0 °F 21.7 °F 26.1 °F 92% 30.05 in 2.5 mi West 5.8 mph - 0.01 in   Overcast
3:00 AM 28.4 °F 24.6 °F 26.6 °F 93% 30.02 in 7.0 mi WNW 3.5 mph - N/A   Overcast
3:53 AM 27.0 °F 23.0 °F 26.1 °F 96% 30.01 in 4.0 mi WNW 3.5 mph - N/A   Overcast
4:21 AM 26.6 °F - 26.6 °F 100% 29.99 in 4.0 mi Calm Calm - 0.00 in Rain Light Freezing Rain
4:43 AM 26.6 °F - 26.6 °F 100% 29.99 in 4.0 mi Calm Calm - 0.00 in   Overcast
4:53 AM 28.0 °F - 26.1 °F 92% 30.00 in 6.0 mi Calm Calm - 0.00 in   Overcast
5:20 AM 28.4 °F 24.6 °F 26.6 °F 93% 29.96 in 6.0 mi SSE 3.5 mph - N/A   Overcast
5:53 AM 32.0 °F 24.2 °F 30.0 °F 92% 29.94 in 10.0 mi SSW 9.2 mph - N/A   Overcast
6:53 AM 35.1 °F 30.1 °F 30.0 °F 82% 29.91 in 10.0 mi WSW 5.8 mph - N/A   Overcast
7:53 AM 30.0 °F 24.1 °F 28.0 °F 92% 29.92 in 7.0 mi NNE 5.8 mph - N/A   Overcast
8:35 AM 30.2 °F 25.4 °F 28.4 °F 93% 29.91 in 10.0 mi NE 4.6 mph - N/A   Overcast
8:49 AM 30.2 °F 26.7 °F 28.4 °F 93% 29.91 in 10.0 mi NE 3.5 mph - N/A   Overcast
8:53 AM 30.9 °F - 28.9 °F 92% 29.92 in 10.0 mi Calm Calm - N/A   Overcast
9:48 AM 30.2 °F 26.7 °F 28.4 °F 93% 29.93 in 10.0 mi Variable 3.5 mph - N/A   Overcast
9:53 AM 30.9 °F - 28.9 °F 92% 29.93 in 10.0 mi Calm Calm - N/A   Overcast
10:53 AM 32.0 °F 26.4 °F 28.9 °F 88% 29.92 in 10.0 mi Variable 5.8 mph - N/A   Overcast
11:53 AM 32.0 °F - 30.0 °F 92% 29.91 in 10.0 mi Calm Calm - N/A   Mostly Cloudy
12:53 PM 32.0 °F - 30.0 °F 92% 29.91 in 10.0 mi Calm Calm - N/A Fog Mostly Cloudy
12:58 PM 32.0 °F 27.5 °F 30.2 °F 93% 29.91 in 6.0 mi Variable 4.6 mph - N/A   Overcast
1:02 PM 32.0 °F 27.5 °F 30.2 °F 93% 29.91 in 2.5 mi NE 4.6 mph - N/A   Overcast
1:14 PM 30.2 °F 25.4 °F 30.2 °F 100% 29.91 in 0.5 mi NE 4.6 mph - N/A   Overcast
1:45 PM 30.2 °F 22.6 °F 30.2 °F 100% 29.90 in 0.2 mi NNE 8.1 mph - N/A Fog Light Freezing Fog
1:53 PM 30.9 °F 25.2 °F 30.0 °F 96% 29.91 in 0.2 mi NNE 5.8 mph - N/A Fog Light Freezing Fog
2:25 PM 30.2 °F 25.4 °F 30.2 °F 100% 29.89 in 0.2 mi NE 4.6 mph - N/A Fog Light Freezing Fog
2:42 PM 32.0 °F 25.6 °F 30.2 °F 93% 29.88 in 0.2 mi ENE 6.9 mph - N/A Fog Light Freezing Fog
2:53 PM 32.0 °F 28.7 °F 30.9 °F 96% 29.89 in 0.2 mi NNE 3.5 mph - N/A Fog Light Freezing Fog
3:03 PM 32.0 °F 27.5 °F 30.2 °F 93% 29.89 in 0.2 mi NNE 4.6 mph - N/A Fog Light Freezing Fog
3:18 PM 32.0 °F 28.7 °F 30.2 °F 93% 29.88 in 0.2 mi Variable 3.5 mph - N/A Fog Light Freezing Fog
3:27 PM 32.0 °F 27.5 °F 30.2 °F 93% 29.88 in 0.2 mi NNE 4.6 mph - N/A Fog Light Freezing Fog
3:53 PM 30.9 °F 26.2 °F 30.9 °F 100% 29.89 in 0.2 mi Variable 4.6 mph - N/A Fog Light Freezing Fog
4:07 PM 30.2 °F 25.4 °F 30.2 °F 100% 29.89 in 0.1 mi Variable 4.6 mph - N/A Fog Light Freezing Fog
4:39 PM 30.2 °F 24.3 °F 30.2 °F 100% 29.90 in 0.1 mi NNE 5.8 mph - N/A Fog Light Freezing Fog
4:53 PM 30.0 °F 25.2 °F 30.0 °F 100% 29.92 in 0.1 mi NNE 4.6 mph - N/A Fog Light Freezing Fog
5:53 PM 28.9 °F 25.2 °F 28.0 °F 96% 29.95 in 0.1 mi NE 3.5 mph - N/A Fog Light Freezing Fog
6:14 PM 28.4 °F 21.2 °F 28.4 °F 100% 29.94 in 0.1 mi ENE 6.9 mph - N/A Fog Light Freezing Fog
6:53 PM 28.0 °F - 27.0 °F 96% 29.95 in 0.1 mi Calm Calm - N/A Fog Light Freezing Fog
7:50 PM 26.6 °F - 24.8 °F 93% 29.98 in 0.1 mi Calm Calm - N/A Fog Light Freezing Fog
7:53 PM 26.1 °F 20.5 °F 24.1 °F 92% 29.98 in 0.1 mi WNW 4.6 mph - N/A Fog Light Freezing Fog
8:32 PM 26.6 °F - 24.8 °F 93% 29.98 in 1.0 mi Calm Calm - N/A   Scattered Clouds
8:43 PM 26.6 °F - 24.8 °F 93% 29.98 in 3.0 mi Calm Calm - N/A   Scattered Clouds
8:53 PM 26.1 °F - 25.0 °F 96% 30.00 in 10.0 mi Calm Calm - N/A Fog Shallow Fog
9:53 PM 24.1 °F - 21.9 °F 91% 30.01 in 10.0 mi Calm Calm - N/A   Scattered Clouds
10:53 PM 25.0 °F 18.1 °F 21.0 °F 85% 30.03 in 10.0 mi Variable 5.8 mph - N/A   Scattered Clouds
11:53 PM 21.9 °F 15.7 °F 19.9 °F 92% 30.04 in 10.0 mi WSW 4.6 mph - N/A   Partly Cloudy